STARLINK-1123, 44930

Orbit data source: Space-Track

STARLINK-1123, 44930 is a payload satellite owned by SpaceX/Seattle (US) in LEO that was launched on Tue, 07 Jan 2020 UTC via an FALCON 9 launch vehicle from the Air Force Eastern Test Range (AFETR). Payload-class satellites include a variety of spacecraft equipped with specific instruments for various scientific and technological missions. These include communications satellites like Starlink; space stations such as the ISS; scientific satellites like the Hubble; Earth observation satellites from companies like Planet Labs, Umbra, and HawkEye 360; GPS; miniature CubeSats for education and research; and military/defense satellites.

Loading next visibility...
Identifier
44930, 2020-001S
Orbit
LEO
Country
Flag of USUS
Related business
Manufacturer
SpaceX/Seattle
Mission
Partially operational Commercial Communications
Bus & Motor
STARLINK, Unknown motor
Mass
260 kg wet, ~248 kg dry
Launch date (UTC)
2020-01-07 (6 years ago)
Launch vehicle
FALCON 9
Launch site
Air Force Eastern Test Range (AFETR)
Object type
Payload
Rocket body
Debris
Shape & HBR
Box + 1 Pan, 10.1 m
Radar Cross Section
13.562 m², Large (>1 m²)

Expand to show TLE details & history
Last TLE update: 2 days ago

TLE from 2 days ago
0 STARLINK-1123
1 44930U 20001S   26171.40362014  .00065935  00000-0  80017-3 0  9997
2 44930  53.1422 217.4410 0007984 354.4838   5.6086 15.59985129355744
Epoch: 2026-06-20T09:41Z
TLE epoch observation values (Epoch: 2026-06-20T09:41:12.780Z)
Latitude
-0.00002°
Longitude
163.519°
Altitude
383.234 km
Speed
7.684 km/s
True Right ascension
14h 29m 45s
True Declination
0° 00' 00"
Sunlit
Object was in full shadow at epoch
Visualization orbit readout
Latitude
Unknown
Longitude
Unknown
Altitude
Unknown
Speed
Unknown
Apparent Right ascension
Unknown
Apparent Declination
Unknown
Sunlit
N/A
Visualization observer readout
Local Sidereal Time
23:18:53
Azimuth
Unknown
Elevation
Unknown
Doppler factor
Unknown
Orbital elements
Apogee altitude
393.365 km
Perigee altitude
382.561 km
Semi-major axis
6,766.1 km
Eccentricity
0.0008
Inclination
53.1422°
RAAN
217.441°
Arg. of periapsis
354.4838°
True anomaly
5.61755°
Mean anomaly
5.6086°
Eccentric anomaly
5.61307°
Mean motion
3.89974 °/min
Orbital period
92.31 mins
BSTAR
0.00080017
Loading maneuver chart data...
Computing Atmospheric mass density...

Documentation

Showing up to 5 results
|